Regional Weather Roundup
Issued by NWS Lake Charles, LA

Current Version | Previous Version | Text Only | Print | Product List | Glossary On
Versions: 1 2 3 4 5 6 7 8 9 10 11 12 13 14 15 16 17 18 19 20 21 22 23 24 25 26 27 28 29 30 31 32 33 34 35 36 37 38 39 40 41 42 43 44 45 46 47 48 49 50
000
ASUS44 KLCH 241510
RWRLCH
RWRLCH
REGIONAL WEATHER ROUNDUP
NATIONAL WEATHER SERVICE LAKE CHARLES LA
1000 AM CDT THU JUL 24 2014

Note: "fair" indicates few or no clouds below 12,000 feet with no
significant weather and/or obstructions to visibility.


ACROSS SOUTHEAST TEXAS

CITY           SKY/WX    TMP DP  RH WIND       PRES   REMARKS
BEAUMONT       SUNNY     80  71  74 N13       30.02F
BEAUMONT CITY    N/A     80  70  71 N9        30.03F
ORANGE         SUNNY     79  71  77 N6        30.04F
JASPER         SUNNY     78  69  74 NW6       30.06F
$$

ACROSS CENTRAL LOUISIANA

CITY           SKY/WX    TMP DP  RH WIND       PRES   REMARKS
LEESVILLE      SUNNY     78  70  76 N8        30.04S
FULLERTON        N/A     81  70  69 VRB3      30.01F
ALEXANDRIA INT SUNNY     79  70  74 CALM      30.02S
ESLER FIELD    SUNNY     80  71  74 VRB5      30.03S
DERIDDER         N/A     78  71  78 CALM      30.05S
OAKDALE        MOSUNNY   79  73  81 CALM      30.02F
OPELOUSAS        N/A     80  74  82 CALM      30.02S
$$

ACROSS SOUTHWEST AND SOUTH CENTRAL LOUISIANA

CITY           SKY/WX    TMP DP  RH WIND       PRES   REMARKS
SULPHUR        SUNNY     81  74  78 N6        30.03S
LAKE CHARLES   MOSUNNY   81  72  74 VRB5      30.02S
CHENNAULT INT  MOSUNNY   79  72  78 N5        30.03S
CAMERON PHI    PTSUNNY   79  73  83 N9        30.02S
DEQUINCY         N/A     78  71  79 N3        30.03F
JENNINGS       CLOUDY    77  75  91 N3        30.01F
LAFAYETTE      SUNNY     83  75  77 NE5       30.02S
NEW IBERIA     SUNNY     85  75  72 CALM      30.02S
ABBEVILLE        N/A     83  76  79 CALM      30.01F
PATTERSON      MOSUNNY   84  75  74 CALM      30.05S
SALT POINT       N/A     86  78  77 CALM      30.00S
$$

SELECTED SITES ACROSS THE REGION

CITY           SKY/WX    TMP DP  RH WIND       PRES   REMARKS
HOUSTON BUSH   MOSUNNY   82  72  71 VRB5      30.03S
HOUSTON HOBBY  MOSUNNY   85  73  67 N3        30.02R
GALVESTON      MOSUNNY   85  74  69 N9        30.02S
COLLEGE STAT   SUNNY     81  69  67 NE6       30.06R
CONROE         MOSUNNY   81  70  69 N5        30.05R
HUNTSVILLE     MOSUNNY   81  69  67 VRB3      30.06R
LUFKIN         SUNNY     84  69  60 NW7       30.04F
SHREVEPORT     CLOUDY    74  69  85 N5        30.06S
MONROE         CLOUDY    75  71  87 CALM      30.06R HAZE
NATCHEZ MS     PTSUNNY   79  72  78 NW3       30.04S
BATON ROUGE    MOSUNNY   84  73  69 NE5       30.02S
N.O. INTL ARPT PTSUNNY   82  73  74 W5        30.01S
SLIDELL        MOSUNNY   82  74  76 CALM      30.02R
$$

MARINE REPORTS

STATION/POSITION TIME  TEMP    WIND        PRES    VSBY  WAVE
                       AIR SEA DIR/SP/G                  HT/PER
                 (UTC) (F)     (DEG/KT/KT) (MB)    (MI)  (FT/S)
BUOY 30 S HIGH I NOT AVBL
SEA RIM ST PARK  1500   78      10/  9/ 11 1017.2S
PORT ARTHUR      1500      87   10/  8/ 10 1016.7S
SABINE PASS N    1500   78 86   10/ 11/ 12 1016.9R
TEXAS POINT      1500   78 86  360/ 10/ 11 1016.9R
CALCASIEU PASS   1500   78 86   40/  9/ 11 1017.5R
LK CHARLES BEACH 1500   78 82              1017.4S
MARSH ISLAND     1400   85     290/  6/  7   N/A
FRESH WATER LOCK 1500   83 87  340/  5/  6 1015.8F
AMERADA PASS     1500   82 82  360/  1/  4 1016.3S
$$


USA.gov is the U.S. government's official web portal to all federal, state and local government web resources and services.